Time,TemperatureF,DewpointF,PressureIn,WindDirection,WindDirectionDegrees,WindSpeedMPH,WindSpeedGustMPH,Humidity,HourlyPrecipIn,Conditions,Clouds,dailyrainin,SoftwareType,DateUTC
2013-03-02 00:02:00,27.0,23.0,29.85,WNW,288,1.0,7.0,84,0.00,,,0.01,,2013-03-02 05:02:00,
2013-03-02 00:12:00,27.0,23.0,29.85,WNW,288,1.0,7.0,84,0.00,,,0.01,,2013-03-02 05:12:00,
2013-03-02 00:23:00,27.0,23.0,29.85,NW,325,2.0,9.0,84,0.00,,,0.01,,2013-03-02 05:23:00,
2013-03-02 00:32:00,27.0,23.0,29.85,North,349,3.0,8.0,84,0.00,,,0.01,,2013-03-02 05:32:00,
2013-03-02 00:42:00,27.0,23.0,29.85,North,349,3.0,8.0,84,0.00,,,0.01,,2013-03-02 05:42:00,
2013-03-02 00:52:00,27.0,23.0,29.85,North,349,3.0,8.0,84,0.00,,,0.01,,2013-03-02 05:52:00,
2013-03-02 01:02:00,27.0,23.0,29.86,West,278,0.0,3.0,84,0.00,,,0.01,,2013-03-02 06:02:00,
2013-03-02 01:11:00,27.0,23.0,29.86,West,278,0.0,3.0,84,0.00,,,0.01,,2013-03-02 06:11:00,
2013-03-02 01:22:00,26.0,22.0,29.86,WNW,296,2.0,8.0,83,0.00,,,0.01,,2013-03-02 06:22:00,
2013-03-02 01:32:00,26.0,22.0,29.86,WSW,253,1.0,7.0,83,0.00,,,0.01,,2013-03-02 06:32:00,
2013-03-02 01:42:00,26.0,22.0,29.86,WSW,253,1.0,7.0,83,0.00,,,0.01,,2013-03-02 06:42:00,
2013-03-02 01:52:00,26.0,22.0,29.86,WSW,256,0.0,4.0,83,0.00,,,0.01,,2013-03-02 06:52:00,
2013-03-02 02:02:00,26.0,22.0,29.86,West,273,1.0,7.0,84,0.00,,,0.01,,2013-03-02 07:02:00,
2013-03-02 02:11:00,26.0,22.0,29.85,West,264,3.0,7.0,84,0.00,,,0.01,,2013-03-02 07:11:00,
2013-03-02 02:21:00,26.0,22.0,29.85,West,264,3.0,7.0,84,0.00,,,0.01,,2013-03-02 07:21:00,
2013-03-02 02:32:00,26.0,22.0,29.85,NW,308,0.0,4.0,84,0.00,,,0.01,,2013-03-02 07:32:00,
2013-03-02 02:42:00,26.0,22.0,29.85,NW,308,0.0,4.0,84,0.00,,,0.01,,2013-03-02 07:42:00,
2013-03-02 02:51:00,26.0,22.0,29.85,West,269,1.0,4.0,85,0.00,,,0.01,,2013-03-02 07:51:00,
2013-03-02 03:01:00,25.0,21.0,29.85,West,259,0.0,8.0,85,0.00,,,0.01,,2013-03-02 08:01:00,
2013-03-02 03:11:00,25.0,21.0,29.85,West,259,0.0,8.0,85,0.00,,,0.01,,2013-03-02 08:11:00,
2013-03-02 03:22:00,25.0,21.0,29.85,WNW,287,2.0,6.0,85,0.00,,,0.01,,2013-03-02 08:22:00,
2013-03-02 03:32:00,25.0,21.0,29.85,WNW,291,0.0,3.0,85,0.00,,,0.01,,2013-03-02 08:32:00,
2013-03-02 03:42:00,25.0,21.0,29.85,WNW,291,0.0,3.0,85,0.00,,,0.01,,2013-03-02 08:42:00,
2013-03-02 03:52:00,25.0,21.0,29.85,West,274,0.0,2.0,86,0.00,,,0.01,,2013-03-02 08:52:00,
2013-03-02 04:02:00,25.0,21.0,29.85,WNW,300,1.0,4.0,86,0.00,,,0.01,,2013-03-02 09:02:00,
2013-03-02 04:11:00,25.0,21.0,29.85,WNW,282,0.0,5.0,85,0.00,,,0.01,,2013-03-02 09:11:00,
2013-03-02 04:22:00,25.0,21.0,29.85,WNW,282,0.0,5.0,85,0.00,,,0.01,,2013-03-02 09:22:00,
2013-03-02 04:32:00,24.0,20.0,29.85,West,273,1.0,6.0,83,0.00,,,0.01,,2013-03-02 09:32:00,
2013-03-02 04:42:00,24.0,20.0,29.85,West,273,1.0,6.0,83,0.00,,,0.01,,2013-03-02 09:42:00,
2013-03-02 04:52:00,24.0,20.0,29.85,WSW,258,2.0,6.0,83,0.00,,,0.01,,2013-03-02 09:52:00,
2013-03-02 05:01:00,24.0,20.0,29.85,WNW,284,1.0,5.0,83,0.00,,,0.01,,2013-03-02 10:01:00,
2013-03-02 05:16:00,24.0,20.0,29.85,WNW,284,1.0,5.0,83,0.00,,,0.01,,2013-03-02 10:16:00,
2013-03-02 05:22:00,24.0,20.0,29.85,NW,312,1.0,8.0,83,0.00,,,0.01,,2013-03-02 10:22:00,
2013-03-02 05:32:00,24.0,20.0,29.86,West,268,2.0,6.0,84,0.00,,,0.01,,2013-03-02 10:32:00,
2013-03-02 05:43:00,24.0,20.0,29.86,West,268,2.0,6.0,84,0.00,,,0.01,,2013-03-02 10:43:00,
2013-03-02 05:52:00,24.0,20.0,29.86,WNW,302,1.0,7.0,84,0.00,,,0.01,,2013-03-02 10:52:00,
2013-03-02 06:01:00,24.0,20.0,29.85,West,271,1.0,8.0,84,0.00,,,0.01,,2013-03-02 11:01:00,
2013-03-02 06:11:00,24.0,20.0,29.85,West,271,1.0,8.0,84,0.00,,,0.01,,2013-03-02 11:11:00,
2013-03-02 06:21:00,24.0,20.0,29.85,WNW,290,2.0,6.0,84,0.00,,,0.01,,2013-03-02 11:21:00,
2013-03-02 06:32:00,23.0,19.0,29.85,NNW,346,0.0,3.0,85,0.00,,,0.01,,2013-03-02 11:32:00,
2013-03-02 06:42:00,23.0,19.0,29.85,NNW,346,0.0,3.0,85,0.00,,,0.01,,2013-03-02 11:42:00,
2013-03-02 06:52:00,23.0,19.0,29.86,West,262,1.0,4.0,84,0.00,,,0.01,,2013-03-02 11:52:00,
2013-03-02 07:02:00,23.0,19.0,29.86,SW,226,1.0,4.0,84,0.00,,,0.01,,2013-03-02 12:02:00,
2013-03-02 07:11:00,23.0,19.0,29.86,SW,226,1.0,4.0,84,0.00,,,0.01,,2013-03-02 12:11:00,
2013-03-02 07:22:00,23.0,19.0,29.86,NW,319,1.0,4.0,84,0.00,,,0.01,,2013-03-02 12:22:00,
2013-03-02 07:33:00,23.0,19.0,29.87,West,277,0.0,7.0,84,0.00,,,0.01,,2013-03-02 12:33:00,
2013-03-02 07:43:00,23.0,19.0,29.87,West,277,0.0,7.0,84,0.00,,,0.01,,2013-03-02 12:43:00,
2013-03-02 07:53:00,23.0,19.0,29.87,WNW,296,1.0,6.0,84,0.00,,,0.01,,2013-03-02 12:53:00,
2013-03-02 08:01:00,23.0,19.0,29.88,SW,221,2.0,5.0,85,0.00,,,0.01,,2013-03-02 13:01:00,
2013-03-02 08:11:00,23.0,19.0,29.88,SW,221,2.0,5.0,85,0.00,,,0.01,,2013-03-02 13:11:00,
2013-03-02 08:22:00,23.0,19.0,29.88,WNW,289,0.0,4.0,85,0.00,,,0.01,,2013-03-02 13:22:00,
2013-03-02 08:32:00,23.0,19.0,29.88,West,278,0.0,4.0,85,0.00,,,0.01,,2013-03-02 13:32:00,
2013-03-02 08:42:00,23.0,19.0,29.88,West,278,0.0,4.0,85,0.00,,,0.01,,2013-03-02 13:42:00,
2013-03-02 08:52:00,23.0,19.0,29.87,West,263,3.0,9.0,84,0.00,,,0.01,,2013-03-02 13:52:00,
2013-03-02 09:01:00,23.0,19.0,29.87,WNW,289,0.0,9.0,84,0.00,,,0.01,,2013-03-02 14:01:00,
2013-03-02 09:11:00,23.0,19.0,29.87,WNW,289,0.0,9.0,84,0.00,,,0.01,,2013-03-02 14:11:00,
2013-03-02 09:22:00,23.0,19.0,29.87,WNW,289,0.0,9.0,84,0.00,,,0.01,,2013-03-02 14:22:00,
2013-03-02 09:32:00,24.0,20.0,29.87,West,275,2.0,6.0,83,0.00,,,0.01,,2013-03-02 14:32:00,
2013-03-02 09:42:00,24.0,20.0,29.87,West,275,2.0,6.0,83,0.00,,,0.01,,2013-03-02 14:42:00,
2013-03-02 09:52:00,24.0,19.0,29.87,West,276,1.0,5.0,82,0.00,,,0.01,,2013-03-02 14:52:00,
2013-03-02 10:02:00,24.0,19.0,29.87,NW,314,2.0,5.0,81,0.00,,,0.01,,2013-03-02 15:02:00,
2013-03-02 10:11:00,24.0,19.0,29.87,NW,314,2.0,5.0,81,0.00,,,0.01,,2013-03-02 15:11:00,
2013-03-02 10:22:00,25.0,20.0,29.87,WNW,284,1.0,8.0,82,0.00,,,0.01,,2013-03-02 15:22:00,
2013-03-02 10:32:00,25.0,20.0,29.87,WSW,245,2.0,7.0,80,0.00,,,0.01,,2013-03-02 15:32:00,
2013-03-02 10:42:00,25.0,20.0,29.87,WSW,245,2.0,7.0,80,0.00,,,0.01,,2013-03-02 15:42:00,
2013-03-02 10:52:00,26.0,20.0,29.87,WNW,297,4.0,7.0,79,0.00,,,0.01,,2013-03-02 15:52:00,
2013-03-02 11:02:00,25.0,19.0,29.87,West,274,2.0,9.0,79,0.00,,,0.01,,2013-03-02 16:02:00,
2013-03-02 11:11:00,25.0,19.0,29.87,West,274,2.0,9.0,79,0.00,,,0.01,,2013-03-02 16:11:00,
2013-03-02 11:21:00,27.0,21.0,29.86,WSW,248,3.0,7.0,77,0.00,,,0.01,,2013-03-02 16:21:00,
2013-03-02 11:32:00,28.0,21.0,29.86,East,82,5.0,9.0,74,0.00,,,0.01,,2013-03-02 16:32:00,
2013-03-02 11:42:00,28.0,21.0,29.86,East,82,5.0,9.0,74,0.00,,,0.01,,2013-03-02 16:42:00,
2013-03-02 11:52:00,28.0,21.0,29.85,SE,142,3.0,7.0,75,0.00,,,0.01,,2013-03-02 16:52:00,
2013-03-02 12:01:00,28.0,21.0,29.85,NE,45,2.0,9.0,75,0.00,,,0.01,,2013-03-02 17:01:00,
2013-03-02 12:12:00,28.0,21.0,29.85,NE,45,2.0,9.0,75,0.00,,,0.01,,2013-03-02 17:12:00,
2013-03-02 12:21:00,27.0,20.0,29.85,WNW,285,4.0,9.0,75,0.00,,,0.01,,2013-03-02 17:21:00,
2013-03-02 12:32:00,27.0,20.0,29.84,West,273,2.0,11.0,76,0.00,,,0.00,,2013-03-02 17:32:00,
2013-03-02 12:42:00,27.0,20.0,29.84,West,273,2.0,11.0,76,0.00,,,0.00,,2013-03-02 17:42:00,
2013-03-02 12:52:00,27.0,20.0,29.83,WSW,255,4.0,16.0,76,0.00,,,0.00,,2013-03-02 17:52:00,
2013-03-02 13:02:00,28.0,21.0,29.83,East,79,2.0,13.0,75,0.00,,,0.00,,2013-03-02 18:02:00,
2013-03-02 13:12:00,28.0,21.0,29.83,East,79,2.0,13.0,75,0.00,,,0.00,,2013-03-02 18:12:00,
2013-03-02 13:22:00,28.0,20.0,29.83,East,79,3.0,8.0,73,0.00,,,0.00,,2013-03-02 18:22:00,
2013-03-02 13:32:00,28.0,21.0,29.83,ESE,105,2.0,5.0,74,0.00,,,0.00,,2013-03-02 18:32:00,
2013-03-02 13:42:00,28.0,21.0,29.83,ESE,105,2.0,5.0,74,0.00,,,0.00,,2013-03-02 18:42:00,
2013-03-02 13:52:00,27.0,20.0,29.83,East,95,2.0,10.0,74,0.00,,,0.00,,2013-03-02 18:52:00,
2013-03-02 14:02:00,27.0,20.0,29.83,WSW,248,3.0,8.0,74,0.00,,,0.00,,2013-03-02 19:02:00,
2013-03-02 14:12:00,27.0,20.0,29.83,WSW,248,3.0,8.0,74,0.00,,,0.00,,2013-03-02 19:12:00,
2013-03-02 14:22:00,27.0,20.0,29.83,WNW,289,2.0,10.0,75,0.00,,,0.00,,2013-03-02 19:22:00,
2013-03-02 14:32:00,27.0,20.0,29.82,SE,128,3.0,10.0,76,0.00,,,0.00,,2013-03-02 19:32:00,
2013-03-02 14:42:00,27.0,20.0,29.82,SE,128,3.0,10.0,76,0.00,,,0.00,,2013-03-02 19:42:00,
2013-03-02 14:52:00,27.0,21.0,29.82,WSW,248,2.0,7.0,77,0.00,,,0.00,,2013-03-02 19:52:00,
2013-03-02 15:02:00,27.0,21.0,29.82,East,90,2.0,10.0,78,0.00,,,0.00,,2013-03-02 20:02:00,
2013-03-02 15:11:00,27.0,21.0,29.82,East,90,2.0,10.0,78,0.00,,,0.00,,2013-03-02 20:11:00,
2013-03-02 15:22:00,26.0,20.0,29.82,WNW,287,3.0,12.0,79,0.00,,,0.00,,2013-03-02 20:22:00,
2013-03-02 15:32:00,27.0,21.0,29.83,WSW,238,0.0,7.0,78,0.00,,,0.00,,2013-03-02 20:32:00,
2013-03-02 15:42:00,27.0,21.0,29.83,WSW,238,0.0,7.0,78,0.00,,,0.00,,2013-03-02 20:42:00,
2013-03-02 15:52:00,26.0,20.0,29.82,NW,304,2.0,-999.0,78,-99.99,,,-99.99,,2013-03-02 20:52:00,
2013-03-02 16:02:00,26.0,20.0,29.83,West,267,3.0,8.0,78,0.00,,,0.00,,2013-03-02 21:02:00,
2013-03-02 16:12:00,26.0,20.0,29.83,West,267,3.0,8.0,78,0.00,,,0.00,,2013-03-02 21:12:00,
2013-03-02 16:22:00,26.0,21.0,29.83,WSW,238,1.0,6.0,80,0.00,,,0.00,,2013-03-02 21:22:00,
2013-03-02 16:32:00,25.0,20.0,29.83,WNW,282,2.0,7.0,82,0.00,,,0.00,,2013-03-02 21:32:00,
2013-03-02 16:42:00,25.0,20.0,29.83,WNW,282,2.0,7.0,82,0.00,,,0.00,,2013-03-02 21:42:00,
2013-03-02 16:52:00,24.0,20.0,29.83,West,270,3.0,12.0,83,0.00,,,0.00,,2013-03-02 21:52:00,
2013-03-02 17:02:00,24.0,20.0,29.84,WSW,246,1.0,7.0,83,0.00,,,0.00,,2013-03-02 22:02:00,
2013-03-02 17:12:00,24.0,20.0,29.84,WSW,246,1.0,7.0,83,0.00,,,0.00,,2013-03-02 22:12:00,
2013-03-02 17:22:00,24.0,20.0,29.84,West,278,2.0,7.0,83,0.00,,,0.00,,2013-03-02 22:22:00,
2013-03-02 17:32:00,24.0,19.0,29.84,North,349,1.0,5.0,82,0.00,,,0.00,,2013-03-02 22:32:00,
2013-03-02 17:42:00,24.0,19.0,29.84,North,349,1.0,5.0,82,0.00,,,0.00,,2013-03-02 22:42:00,
2013-03-02 17:52:00,24.0,19.0,29.84,WNW,290,3.0,9.0,82,0.00,,,0.00,,2013-03-02 22:52:00,
2013-03-02 18:01:00,24.0,20.0,29.85,WNW,300,2.0,10.0,83,0.00,,,0.00,,2013-03-02 23:01:00,
2013-03-02 18:11:00,23.0,19.0,29.85,WSW,257,4.0,10.0,84,0.00,,,0.00,,2013-03-02 23:11:00,
2013-03-02 18:21:00,23.0,19.0,29.85,WSW,257,4.0,10.0,84,0.00,,,0.00,,2013-03-02 23:21:00,
2013-03-02 18:32:00,23.0,19.0,29.85,West,276,1.0,6.0,85,0.00,,,0.00,,2013-03-02 23:32:00,
2013-03-02 18:42:00,23.0,19.0,29.85,West,276,1.0,6.0,85,0.00,,,0.00,,2013-03-02 23:42:00,
2013-03-02 18:52:00,23.0,19.0,29.86,NW,321,2.0,7.0,83,0.00,,,0.00,,2013-03-02 23:52:00,
2013-03-02 19:02:00,22.0,17.0,29.86,West,262,2.0,7.0,82,0.00,,,0.00,,2013-03-03 00:02:00,
2013-03-02 19:11:00,22.0,17.0,29.86,West,262,2.0,7.0,82,0.00,,,0.00,,2013-03-03 00:11:00,
2013-03-02 19:22:00,22.0,17.0,29.86,WNW,297,3.0,8.0,81,0.00,,,0.00,,2013-03-03 00:22:00,
2013-03-02 19:32:00,22.0,17.0,29.86,West,267,1.0,9.0,81,0.00,,,0.00,,2013-03-03 00:32:00,
2013-03-02 19:42:00,22.0,17.0,29.86,West,267,1.0,9.0,81,0.00,,,0.00,,2013-03-03 00:42:00,
2013-03-02 19:52:00,22.0,17.0,29.87,NW,319,1.0,5.0,82,0.00,,,0.00,,2013-03-03 00:52:00,
2013-03-02 20:01:00,22.0,17.0,29.86,NW,322,1.0,4.0,82,0.00,,,0.00,,2013-03-03 01:01:00,
2013-03-02 20:11:00,22.0,17.0,29.86,NW,322,1.0,4.0,82,0.00,,,0.00,,2013-03-03 01:11:00,
2013-03-02 20:21:00,22.0,17.0,29.86,NW,322,1.0,4.0,82,0.00,,,0.00,,2013-03-03 01:21:00,
2013-03-02 20:32:00,21.0,17.0,29.87,West,262,0.0,6.0,83,0.00,,,0.00,,2013-03-03 01:32:00,
2013-03-02 20:42:00,21.0,17.0,29.87,West,262,0.0,6.0,83,0.00,,,0.00,,2013-03-03 01:42:00,
2013-03-02 20:52:00,21.0,16.0,29.87,West,260,3.0,6.0,82,0.00,,,0.00,,2013-03-03 01:52:00,
2013-03-02 21:01:00,21.0,16.0,29.87,NW,314,2.0,6.0,82,0.00,,,0.00,,2013-03-03 02:01:00,
2013-03-02 21:11:00,21.0,16.0,29.87,NW,314,2.0,6.0,82,0.00,,,0.00,,2013-03-03 02:11:00,
2013-03-02 21:21:00,21.0,17.0,29.87,SW,221,0.0,5.0,83,0.00,,,0.00,,2013-03-03 02:21:00,
2013-03-02 21:32:00,21.0,16.0,29.87,West,278,0.0,5.0,82,0.00,,,0.00,,2013-03-03 02:32:00,
2013-03-02 21:42:00,21.0,16.0,29.87,West,278,0.0,5.0,82,0.00,,,0.00,,2013-03-03 02:42:00,
2013-03-02 21:52:00,21.0,17.0,29.87,East,98,0.0,4.0,83,0.00,,,0.00,,2013-03-03 02:52:00,
2013-03-02 22:02:00,20.0,16.0,29.87,NW,307,0.0,4.0,85,0.00,,,0.00,,2013-03-03 03:02:00,
2013-03-02 22:11:00,20.0,16.0,29.87,NW,307,0.0,4.0,85,0.00,,,0.00,,2013-03-03 03:11:00,
2013-03-02 22:22:00,20.0,16.0,29.86,WNW,290,1.0,3.0,85,0.00,,,0.00,,2013-03-03 03:22:00,
2013-03-02 22:32:00,20.0,16.0,29.86,West,263,0.0,3.0,86,0.00,,,0.00,,2013-03-03 03:32:00,
2013-03-02 22:42:00,20.0,16.0,29.86,West,263,0.0,3.0,86,0.00,,,0.00,,2013-03-03 03:42:00,
2013-03-02 22:52:00,20.0,17.0,29.85,West,277,0.0,1.0,87,0.00,,,0.00,,2013-03-03 03:52:00,
2013-03-02 23:01:00,20.0,16.0,29.85,WSW,239,1.0,4.0,86,0.00,,,0.00,,2013-03-03 04:01:00,
2013-03-02 23:11:00,20.0,16.0,29.85,WSW,239,1.0,4.0,86,0.00,,,0.00,,2013-03-03 04:11:00,
2013-03-02 23:21:00,20.0,16.0,29.85,West,281,0.0,2.0,86,0.00,,,0.00,,2013-03-03 04:21:00,
2013-03-02 23:32:00,20.0,16.0,29.85,WNW,300,1.0,3.0,85,0.00,,,0.00,,2013-03-03 04:32:00,
2013-03-02 23:42:00,20.0,16.0,29.85,WNW,300,1.0,3.0,85,0.00,,,0.00,,2013-03-03 04:42:00,
2013-03-02 23:51:00,20.0,16.0,29.85,West,270,1.0,4.0,85,0.00,,,0.00,,2013-03-03 04:51:00,